St. James, MN

7:20 PM CDT on August 18, 2017 (GMT -0500)
Saint James Municipal

Weather History for KJYG - April, 2013

Change the Weather History Date:

Wednesday, April 17, 2013

  Actual Average Record
Temperature  
Mean Temperature 38 °F -  
Max Temperature 42 °F 61 °F 87 °F (1985)
Min Temperature 35 °F 38 °F 23 °F (1990)
Degree Days  
Heating Degree Days 26    
Moisture  
Dew Point 32 °F    
Average Humidity 78    
Maximum Humidity 87    
Minimum Humidity 65    
Precipitation  
Precipitation 0.41 in - - ()
Sea Level Pressure  
Sea Level Pressure 30.11 in    
Wind  
Wind Speed 4 mph (NNE)    
Max Wind Speed 17 mph    
Max Gust Speed 25 mph    
Visibility 8 miles    
Events Rain , Snow , Thunderstorm    
Averages and records for this station are not official NWS values.
T = Trace of Precipitation, MM = Missing Value Source: NWS Daily Summary

Daily Weather History Graph

Daily Weather History Graph

Search for Another Location

Airport or City:

Trip Planner

Search our weather history database for the weather conditions in past years. The results will help you decide how hot, cold, wet, or windy it might be!

Date:

Astronomy

Apr. 17, 2013 Rise Set
Actual Time 6:31 AM CDT 8:04 PM CDT
Civil Twilight 6:00 AM CDT 8:35 PM CDT
Nautical Twilight 5:24 AM CDT 9:12 PM CDT
Astronomical Twilight 4:45 AM CDT 9:51 PM CDT
Moon 11:41 AM CDT (4/17) 1:47 AM CDT (4/17)
Length of Visible Light 14h 34m
Length of Day
13h 33m
Waxing Crescent, 42% of the Moon is Illuminated
Apr 17
Waxing Crescent
Apr 18
First Quarter
Apr 25
Full
May 2
Last Quarter
May 9
New

Hourly Weather History & Observations

Time (CDT) Temp. Windchill Dew Point Humidity Pressure Visibility Wind Dir Wind Speed Gust Speed Precip Events Conditions
12:15 AM 37.4 °F - 30.2 °F 75% 30.30 in 10.0 mi Calm Calm - N/A   Mostly Cloudy
12:35 AM 37.4 °F - 30.2 °F 75% 30.29 in 10.0 mi Calm Calm - N/A   Mostly Cloudy
12:55 AM 37.4 °F - 30.2 °F 75% 30.30 in 10.0 mi Calm Calm - N/A   Scattered Clouds
1:15 AM 37.4 °F - 30.2 °F 75% 30.30 in 10.0 mi Calm Calm - N/A   Mostly Cloudy
1:35 AM 37.4 °F - 30.2 °F 75% 30.30 in 10.0 mi Calm Calm - N/A   Mostly Cloudy
1:55 AM 37.4 °F - 28.4 °F 70% 30.30 in 10.0 mi Calm Calm - N/A   Overcast
2:15 AM 37.4 °F - 28.4 °F 70% 30.30 in 10.0 mi Calm Calm - N/A   Overcast
2:35 AM 37.4 °F - 28.4 °F 70% 30.29 in 10.0 mi Calm Calm - N/A   Overcast
2:55 AM 37.4 °F - 28.4 °F 70% 30.27 in 10.0 mi Calm Calm - N/A   Overcast
3:15 AM 37.4 °F - 28.4 °F 70% 30.29 in 10.0 mi Calm Calm - N/A   Overcast
3:35 AM 37.4 °F - 28.4 °F 70% 30.28 in 10.0 mi Calm Calm - N/A   Overcast
3:55 AM 37.4 °F - 28.4 °F 70% 30.27 in 10.0 mi Calm Calm - N/A   Overcast
4:15 AM 37.4 °F - 28.4 °F 70% 30.25 in 10.0 mi Calm Calm - N/A   Overcast
4:34 AM 37.4 °F - 30.2 °F 75% 30.23 in 10.0 mi Calm Calm - N/A   Overcast
4:55 AM 37.4 °F - 30.2 °F 75% 30.20 in 10.0 mi Calm Calm - N/A   Overcast
5:15 AM 37.4 °F - 30.2 °F 75% 30.20 in 10.0 mi Calm Calm - N/A   Mostly Cloudy
5:35 AM 37.4 °F - 30.2 °F 75% 30.22 in 10.0 mi Calm Calm - N/A   Overcast
5:55 AM 37.4 °F - 28.4 °F 70% 30.25 in 10.0 mi Calm Calm - N/A   Overcast
6:15 AM 37.4 °F - 28.4 °F 70% 30.26 in 10.0 mi Calm Calm - N/A   Overcast
6:35 AM 37.4 °F - 30.2 °F 75% 30.24 in 10.0 mi Calm Calm - N/A   Overcast
6:55 AM 37.4 °F 31.4 °F 28.4 °F 70% 30.20 in 10.0 mi NNE 8.1 mph - N/A   Overcast
7:15 AM 37.4 °F - 28.4 °F 70% 30.20 in 10.0 mi Calm Calm - N/A   Overcast
7:34 AM 37.4 °F - 30.2 °F 75% 30.19 in 10.0 mi Calm Calm - N/A   Overcast
7:55 AM 39.2 °F - 28.4 °F 65% 30.21 in 10.0 mi Calm Calm - N/A   Overcast
8:15 AM 39.2 °F - 28.4 °F 65% 30.23 in 10.0 mi Calm Calm - N/A   Overcast
8:35 AM 39.2 °F - 28.4 °F 65% 30.23 in 10.0 mi Calm Calm - N/A   Overcast
9:14 AM 39.2 °F - 28.4 °F 65% 30.20 in 10.0 mi Calm Calm - N/A Rain Light Rain
9:35 AM 39.2 °F - 30.2 °F 70% 30.20 in 7.0 mi Calm Calm - N/A Rain Light Rain
9:55 AM 37.4 °F - 30.2 °F 75% 30.20 in 10.0 mi Calm Calm - N/A Rain Light Rain
10:15 AM 37.4 °F - 30.2 °F 75% 30.19 in 3.0 mi Calm Calm - 0.01 in   Mostly Cloudy
10:35 AM 35.6 °F - 30.2 °F 81% 30.18 in 2.5 mi Calm Calm - 0.04 in Snow Light Snow
10:55 AM 35.6 °F 28.0 °F 30.2 °F 81% 30.14 in 7.0 mi NNE 10.4 mph - 0.09 in Rain Rain
11:15 AM 37.4 °F 30.8 °F 32.0 °F 81% 30.12 in 10.0 mi NNE 9.2 mph - 0.05 in Rain Light Rain
11:34 AM 37.4 °F 30.3 °F 32.0 °F 81% 30.13 in 10.0 mi NE 10.4 mph - 0.06 in Rain Light Rain
11:55 AM 39.2 °F 31.2 °F 33.8 °F 81% 30.14 in 10.0 mi NE 13.8 mph 17.3 mph 0.06 in   Mostly Cloudy
12:15 PM 39.2 °F 32.5 °F 33.8 °F 81% 30.15 in 10.0 mi NE 10.4 mph - N/A   Overcast
12:34 PM 39.2 °F 32.0 °F 33.8 °F 81% 30.12 in 10.0 mi NE 11.5 mph 19.6 mph N/A   Overcast
12:55 PM 41.0 °F 34.3 °F 33.8 °F 76% 30.09 in 10.0 mi NE 11.5 mph 17.3 mph N/A   Overcast
1:15 PM 41.0 °F 33.9 °F 33.8 °F 76% 30.08 in 10.0 mi NE 12.7 mph 16.1 mph N/A   Overcast
1:35 PM 41.0 °F 34.3 °F 33.8 °F 76% 30.05 in 10.0 mi NE 11.5 mph 17.3 mph N/A   Overcast
1:55 PM 42.8 °F 35.1 °F 33.8 °F 70% 30.08 in 10.0 mi NE 16.1 mph - N/A   Overcast
2:15 PM 42.8 °F 37.0 °F 35.6 °F 76% 30.06 in 5.0 mi NE 10.4 mph 20.7 mph N/A   Haze
2:35 PM 41.0 °F 33.9 °F 33.8 °F 76% 30.06 in 4.0 mi NE 12.7 mph 17.3 mph N/A   Light Drizzle
2:55 PM 41.0 °F 34.7 °F 35.6 °F 81% 30.04 in 4.0 mi NNE 10.4 mph - N/A Rain Light Rain
3:35 PM 41.0 °F 35.2 °F 35.6 °F 81% 30.03 in 3.0 mi NE 9.2 mph - N/A Rain Light Rain
3:55 PM 41.0 °F 33.9 °F 35.6 °F 81% 30.02 in 2.0 mi NE 12.7 mph - N/A Rain Light Rain
4:15 PM 41.0 °F 33.9 °F 35.6 °F 81% 30.00 in 2.5 mi NNE 12.7 mph 17.3 mph 0.01 in   Light Drizzle
4:34 PM 41.0 °F 36.4 °F 35.6 °F 81% 30.02 in 4.0 mi NNE 6.9 mph 17.3 mph 0.01 in   Haze
4:54 PM 41.0 °F 34.7 °F 35.6 °F 81% 29.99 in 3.0 mi NNE 10.4 mph - 0.01 in Rain Light Rain
5:15 PM 39.2 °F 32.0 °F 35.6 °F 87% 29.98 in 4.0 mi NNE 11.5 mph 18.4 mph N/A   Light Drizzle
5:35 PM 39.2 °F 30.8 °F 35.6 °F 87% 29.96 in 4.0 mi NNE 15.0 mph 20.7 mph 0.01 in Rain Light Rain
5:55 PM 39.2 °F 31.6 °F 35.6 °F 87% 29.96 in 5.0 mi NNE 12.7 mph 20.7 mph 0.01 in Rain Light Rain
6:15 PM 39.2 °F 30.5 °F 35.6 °F 87% 29.95 in 5.0 mi NNE 16.1 mph 21.9 mph N/A Rain Light Rain
6:35 PM 39.2 °F 30.2 °F 33.8 °F 81% 29.94 in 5.0 mi NNE 17.3 mph 23.0 mph N/A Rain Light Rain
6:55 PM 39.2 °F 30.5 °F 33.8 °F 81% 29.95 in 7.0 mi NNE 16.1 mph - N/A   Overcast
7:14 PM 39.2 °F 30.5 °F 33.8 °F 81% 29.97 in 7.0 mi NNE 16.1 mph - N/A   Overcast
7:35 PM 39.2 °F 30.8 °F 33.8 °F 81% 29.94 in 5.0 mi NNE 15.0 mph - N/A Rain , Thunderstorm Light Thunderstorms and Rain
7:55 PM 39.2 °F 37.0 °F 33.8 °F 81% 29.98 in 5.0 mi NNE 3.5 mph 19.6 mph 0.03 in Rain Light Rain
8:14 PM 39.2 °F 33.0 °F 33.8 °F 81% 29.99 in 5.0 mi NNE 9.2 mph - 0.05 in Rain Heavy Rain
8:35 PM 37.4 °F 29.8 °F 33.8 °F 87% 29.95 in 7.0 mi NNE 11.5 mph - 0.11 in Rain Rain
8:55 PM 37.4 °F 28.5 °F 33.8 °F 87% 29.92 in 5.0 mi NNE 15.0 mph 25.3 mph 0.14 in Rain Rain
9:15 PM 37.4 °F 28.5 °F 33.8 °F 87% 29.91 in 10.0 mi North 15.0 mph - 0.01 in Rain Light Rain
9:35 PM 37.4 °F 28.9 °F 33.8 °F 87% 29.91 in 10.0 mi North 13.8 mph 18.4 mph 0.01 in   Light Drizzle
9:55 PM 37.4 °F 30.3 °F 33.8 °F 87% 29.94 in 10.0 mi North 10.4 mph - 0.01 in   Light Drizzle
10:15 PM 37.4 °F 29.8 °F 33.8 °F 87% 29.95 in 7.0 mi North 11.5 mph - N/A   Overcast
10:35 PM 37.4 °F 29.3 °F 33.8 °F 87% 29.94 in 3.0 mi North 12.7 mph 17.3 mph 0.02 in Rain Light Rain
10:55 PM 37.4 °F 28.9 °F 33.8 °F 87% 29.92 in 5.0 mi North 13.8 mph - 0.03 in Rain Rain
11:15 PM 37.4 °F 29.3 °F 33.8 °F 87% 29.93 in 5.0 mi NNW 12.7 mph - 0.01 in   Drizzle
11:35 PM 35.6 °F 26.6 °F 32.0 °F 87% 29.92 in 4.0 mi NNW 13.8 mph - 0.02 in Rain Light Rain
11:55 PM 35.6 °F 26.2 °F 32.0 °F 87% 29.91 in 5.0 mi North 15.0 mph - 0.03 in Rain Light Rain